Regional Weather Roundup
Issued by NWS

Home | Current Version | Previous Version | Text Only | Print | Product List | Glossary Off
Versions: 1 2 3 4 5 6 7 8 9 10 11 12 13 14 15 16 17 18 19 20 21 22 23 24 25 26 27 28 29

000
ASUS45 KGTF 270510
RWRMT
MONTANA HOURLY WEATHER ROUNDUP
NATIONAL WEATHER SERVICE GREAT FALLS MT
1100 PM MDT SUN APR 26 2015

NOTE: "FAIR" INDICATES FEW OR NO CLOUDS BELOW 12000 FEET WITH NO
SIGNIFICANT WEATHER AND/OR OBSTRUCTIONS TO VISIBILITY.

MTZ001>007-043-270600-
WEST OF THE DIVIDE

CITY           SKY/WX    TMP DP  RH WIND       PRES   REMARKS
KALISPELL      PTCLDY    39  33  79 CALM      30.23R
MISSOULA       CLOUDY    41  39  93 S5        30.28R
BUTTE          PTCLDY    32  28  85 SE3       30.25R
DEER LODGE       N/A     34  28  80 CALM      30.30R
EUREKA           N/A     41  34  75 SE3       30.22R
HAMILTON         N/A     41  36  81 SW3       30.27S
LIBBY            N/A     39  27  60 SE5       30.24R
$$

MTZ008-052>055-270600-
SOUTHWEST MONTANA

CITY           SKY/WX    TMP DP  RH WIND       PRES   REMARKS
BOZEMAN        CLOUDY    38  34  85 SW6       30.26R
DILLON         CLOUDY    38  34  85 S3        30.23R
$$

MTZ009-010-012-014-046-048-049-054-270600-
EAST SLOPES AND CENTRAL MONTANA

CITY           SKY/WX    TMP DP  RH WIND       PRES   REMARKS
CUT BANK       CLEAR     34  27  75 S6        30.20S WCI  29
GREAT FALLS    CLEAR     33  28  81 S6        30.23S WCI  28
HELENA         CLEAR     33  30  88 W7        30.26R WCI  27
$$

MTZ011-013-016-021-045-047-050-051-270600-
NORTH CENTRAL MONTANA

CITY           SKY/WX    TMP DP  RH WIND       PRES   REMARKS
HAVRE          CLEAR     33  27  78 S3        30.25R
LEWISTOWN      MOCLDY    34  31  88 CALM      30.25S
CHINOOK          N/A     34  28  80 CALM      30.26S
FORT BENTON      N/A     37  30  75 S5        30.26S
$$

MTZ017>020-022>042-056>058-061-062-270600-
EASTERN PLAINS

CITY           SKY/WX    TMP DP  RH WIND       PRES   REMARKS
BAKER          LGT RAIN  41  39  93 NW12      30.21S
BILLINGS       CLOUDY    37  34  89 S3        30.28R
GLASGOW        LGT RAIN  41  35  79 W5        30.25R
JORDAN           N/A     38  35  89 W7        30.26R
LIVINGSTON     CLOUDY    37  33  85 NE6       30.24R
MILES CITY     LGT RAIN  38  36  92 NW6       30.26R
SIDNEY         CLOUDY    45  39  81 W10       30.22R
WOLF POINT     LGT RAIN  43  37  79 W6        30.25R
BIG TIMBER       N/A     36  34  93 E6        30.27R WCI  31
FORSYTH          N/A     37  37 100 CALM      30.27S
PLENTYWOOD       N/A     43  34  70 NW7       30.22R
POPLAR           N/A     43  39  87 W6        30.25R
$$

REGIONAL REPORTS...DAKOTAS

CITY           SKY/WX    TMP DP  RH WIND       PRES   REMARKS
WILLISTON      LGT RAIN  45  36  70 N10       30.21R
MINOT          CLOUDY    47  45  93 SW3       30.17R
DICKINSON      LGT RAIN  43  41  93 NW3       30.16R FOG
BEACH          LGT RAIN  39  39 100 NW9       30.22R
CROSBY         FAIR      41  39  93 N7        30.22S
WATFORD CITY   CLOUDY    45  43  93 NW5       30.18S
BISMARCK       CLOUDY    48  45  89 N3        30.17R FOG
GRAND FORKS    PTCLDY    42  30  62 SE5       30.15R
FARGO          PTCLDY    45  30  55 CALM      30.15R
BUFFALO SD       N/A     45  43  93 N3        30.11R
RAPID CITY     CLOUDY    46  43  89 N5        30.14R
$$

REGIONAL REPORTS...WYOMING/IDAHO/WASHINGTON

CITY           SKY/WX    TMP DP  RH WIND       PRES   REMARKS
GILLETTE       MIX PCPN  35  34  96 N12       30.19S FOG     WCI  27
SHERIDAN       MIX PCPN  36  34  92 NW13      30.25R WCI  27
BUFFALO WY     CLOUDY    36  34  92 N10       30.21R WCI  28
CODY           CLOUDY    36  28  75 N13       30.22R WCI  27
YELLOWSTONE LA   N/A     31  27  85 CALM      30.20R
IDAHO FALLS    CLOUDY    41  37  86 NW6       30.18R
SALMON         CLOUDY    45  30  57 E5        30.25R
BOISE          CLEAR     49  23  36 W3        30.20R
SPOKANE        PTCLDY    48  26  42 SW7       30.24R
$$

REGIONAL REPORTS...ALBERTA

CITY           SKY/WX    TMP DP  RH WIND       PRES   REMARKS
EDMONTON       CLEAR     34  25  69 S7        30.09S WCI  28
CALGARY        PTCLDY    37  25  60 S7        30.09R
LETHBRIDGE     CLEAR     37  30  75 S10       30.15S WCI  30
MEDICINE HAT   CLEAR     37  30  75 S7        30.20S
$$

REGIONAL REPORTS...SASKATCHEWAN

CITY           SKY/WX    TMP DP  RH WIND       PRES   REMARKS
SWIFT CURRENT  MOCLDY    36  34  93 S8        30.20S WCI  29
REGINA         CLOUDY    37  34  87 NW6       30.23R
SASKATOON      MOCLDY    32  32 100 E3        30.23R
$$



USA.gov is the U.S. government's official web portal to all federal, state and local government web resources and services.